Date,TemperatureHighF,TemperatureAvgF,TemperatureLowF,DewpointHighF,DewpointAvgF,DewpointLowF,HumidityHigh,HumidityAvg,HumidityLow,PressureMaxIn,PressureMinIn,WindSpeedMaxMPH,WindSpeedAvgMPH,GustSpeedMaxMPH,PrecipitationSumIn
2013-9-1,77.4,68.5,63.3,73.3,66.9,60.9,99,95,77,30.06,29.93,2,0,5,0.00
2013-9-2,63.7,60.1,56.3,60.9,54.9,51.5,94,83,74,30.23,30.06,2,0,7,0.00
2013-9-3,71.6,66.1,56.7,61.7,58.6,53.1,92,78,64,30.26,30.17,2,0,5,0.00
2013-9-4,67.5,62.2,54.5,61.6,58.0,48.0,95,86,75,30.42,30.18,2,0,4,0.00
2013-9-5,66.2,57.9,50.7,55.5,50.7,46.1,89,78,61,30.55,30.42,2,0,3,0.00
2013-9-6,75.6,65.0,53.4,68.7,60.0,50.7,95,85,65,30.45,30.15,2,0,4,0.00
2013-9-7,82.6,71.7,62.2,72.3,67.6,61.4,97,87,70,30.29,30.10,2,0,7,0.00
2013-9-8,70.2,63.4,57.2,61.4,57.5,53.1,99,83,58,30.38,30.22,2,0,3,0.00
2013-9-9,81.3,67.6,62.4,76.6,66.7,61.1,99,97,81,30.24,29.91,2,0,7,0.00
2013-9-10,86.4,77.2,66.7,74.6,70.9,66.4,99,82,68,30.19,29.92,2,0,7,0.22
2013-9-11,77.9,70.2,64.0,71.1,67.3,61.7,99,91,77,30.22,30.12,1,0,4,0.00
2013-9-12,66.2,60.4,52.7,62.0,55.8,47.0,96,85,73,30.37,30.17,2,0,8,0.00
2013-9-13,59.9,52.9,47.1,48.9,45.0,41.8,92,76,59,30.46,30.36,2,0,7,0.00
2013-9-14,67.3,57.6,47.1,55.7,51.4,44.9,99,81,59,30.38,30.20,2,0,4,0.00
2013-9-15,62.8,56.6,49.1,60.0,53.6,43.6,99,90,71,30.50,30.18,2,0,8,0.22
2013-9-16,57.2,51.1,45.9,47.8,44.9,41.9,90,80,64,30.66,30.50,2,0,4,0.00
2013-9-17,63.5,54.8,45.0,56.3,51.3,41.2,99,89,72,30.59,30.34,2,0,4,0.00
2013-9-18,68.4,62.9,56.3,66.6,62.2,54.6,99,98,92,30.34,30.11,2,0,4,0.20
2013-9-19,78.6,68.6,64.2,74.7,67.8,63.9,99,97,86,30.13,29.92,2,1,5,0.05
2013-9-20,70.5,66.8,58.8,69.1,64.9,53.6,99,94,82,30.00,29.88,1,0,4,0.01
2013-9-21,58.8,53.9,49.5,53.7,47.6,40.0,94,80,66,30.20,29.99,2,0,6,0.00
2013-9-22,54.1,50.1,47.1,45.8,44.0,40.6,91,80,69,30.34,30.19,1,0,4,0.00
2013-9-23,59.0,51.2,43.5,51.0,47.6,42.7,99,88,72,30.40,30.32,2,0,2,0.00
2013-9-24,65.5,55.8,47.8,59.2,53.4,47.6,99,92,76,30.35,30.24,2,0,2,0.00
2013-9-25,65.8,56.9,50.0,60.4,54.7,49.7,99,93,75,30.27,30.22,1,0,2,0.00
2013-9-26,69.6,58.6,51.6,62.7,55.8,51.3,99,92,62,30.35,30.25,1,0,3,0.00
2013-9-27,73.2,63.3,55.8,65.1,58.6,51.7,99,86,66,30.40,30.31,2,0,3,0.00
2013-9-28,70.9,64.6,58.5,64.0,60.7,57.1,99,88,72,30.31,30.02,3,1,8,0.32
2013-9-29,65.5,57.1,52.0,58.0,53.6,50.7,99,89,64,30.27,30.11,1,0,3,0.00
2013-9-30,68.5,59.5,52.0,57.7,51.8,44.9,92,77,57,30.22,30.03,2,0,7,0.00